Torna al catalogo

ATLAS CENTAUR DEB

AttivoGEO
NORAD 43342·DEBRIS·🇺🇸 United States

Lanciato Apr 14, 2018 da Cape Canaveral Space Force Station

Loading…

TLE

AggiornatoSource: Space-Track

Epoca: Sep 13, 2026, 18:51 UTC

1 43342U 18036D   26256.78572133  .00000001  00000-0  00000-0 0  9992
2 43342   7.3105  66.0033 0023350 166.6940 193.5359  1.02323162 26213

Traccia ATLAS CENTAUR DEB in tempo reale con AllMySat

Download on the App Store